• Join FlightAware (Why Join?)
  • Login
  • US Flag 
01:44AM EDT


 

Airport Tracker/Info


-or-


 

Live Flight TrackerFlight Track Log ✈ CNS56 ✈ 29-Apr-2012 ✈ KILM - KPDK

Flight Track Log - Related Links

Times and Time Zones

All times are in EDT time to prevent confusion due to time zone crossing. See the CNS56 flight status page for this flight to view local times or setup timezone preferences in your user account.

Time Position Orientation Groundspeed Altitude Reporting Facility
EDT Latitude Longitude Course Direction KTS MPH feet Rate Location/Type
05:23PM 34.2673 -77.9919 36° Northeast  Level FlightAware Approximate
05:24PM 34.3367 -77.9311 269° West 151 174 3,500  Level Washington Center
05:25PM 34.3356 -77.9914 269° West 150 173 5,000 1,380 Climbing Washington Center
05:26PM 34.3344 -78.0492 266° West 163 188 6,400 1,320 Climbing Washington Center
05:27PM 34.3311 -78.1069 266° West 168 193 7,700 1,260 Climbing Washington Center
05:28PM 34.3278 -78.1647 266° West 179 206 8,900 1,140 Climbing Washington Center
05:29PM 34.3244 -78.2222 266° West 179 206 10,100 1,140 Climbing Washington Center
05:30PM 34.3211 -78.2775 267° West 179 206 11,200 1,140 Climbing Washington Center
05:31PM 34.3189 -78.3219 268° West 180 207 12,100 1,080 Climbing Jacksonville Center
05:32PM 34.3169 -78.3775 264° West 180 207 13,100 960 Climbing Jacksonville Center
05:33PM 34.3125 -78.4331 265° West 180 207 14,100 900 Climbing Jacksonville Center
05:34PM 34.3083 -78.4911 265° West 180 207 14,900 780 Climbing Jacksonville Center
05:35PM 34.3042 -78.5542 268° West 180 207 15,700 780 Climbing Jacksonville Center
05:36PM 34.3022 -78.6169 268° West 180 207 16,500 720 Climbing Jacksonville Center
05:37PM 34.3003 -78.6800 263° West 185 213 17,200 660 Climbing Jacksonville Center
05:38PM 34.2939 -78.7456 266° West 190 219 17,900 600 Climbing Jacksonville Center
05:39PM 34.2900 -78.8111 268° West 196 226 18,400 600 Climbing Jacksonville Center
05:40PM 34.2878 -78.8742 264° West 196 226 19,100 600 Climbing Jacksonville Center
05:41PM 34.2817 -78.9422 266° West 201 231 19,700 420 Climbing Jacksonville Center
05:42PM 34.2775 -79.0103 266° West 201 231 20,000 120 Climbing Jacksonville Center
05:43PM 34.2733 -79.0858 265° West 207 238 20,000  Level Jacksonville Center
05:44PM 34.2675 -79.1639 261° West 227 261 20,000  Level Jacksonville Center
05:45PM 34.2572 -79.2422 260° West 238 274 20,000  Level Jacksonville Center
05:46PM 34.2450 -79.3231 256° West 244 281 20,000  Level Jacksonville Center
05:47PM 34.2283 -79.4017 256° West 239 275 20,000  Level Jacksonville Center
05:48PM 34.2117 -79.4800 260° West 234 269 20,000  Level Jacksonville Center
05:49PM 34.2011 -79.5558 256° West 245 282 20,000  Level Jacksonville Center
05:50PM 34.1844 -79.6369 260° West 237 273 20,000  Level Jacksonville Center
05:51PM 34.1739 -79.7100 256° West 243 280 20,000  Level Jacksonville Center
05:52PM 34.1592 -79.7833 258° West 243 280 20,000  Level Jacksonville Center
05:53PM 34.1444 -79.8642 258° West 243 280 20,000  Level Jacksonville Center
05:54PM 34.1314 -79.9397 257° West 243 280 20,000  Level Jacksonville Center
05:55PM 34.1167 -80.0156 259° West 243 280 20,000  Level Jacksonville Center
05:56PM 34.1036 -80.0939 257° West 243 280 20,000  Level Jacksonville Center
05:57PM 34.0886 -80.1694 258° West 243 280 20,000  Level Jacksonville Center
05:58PM 34.0756 -80.2425 257° West 243 280 20,000  Level Jacksonville Center
05:59PM 34.0606 -80.3233 258° West 243 280 20,000  Level Jacksonville Center
06:00PM 34.0475 -80.3989 257° West 243 280 20,000  Level Jacksonville Center
06:01PM 34.0325 -80.4769 258° West 243 280 20,000  Level Jacksonville Center
06:02PM 34.0192 -80.5525 258° West 243 280 20,000  Level Jacksonville Center
06:03PM 34.0058 -80.6281 257° West 238 274 20,000  Level Jacksonville Center
06:04PM 33.9906 -80.7058 259° West 238 274 20,000  Level Jacksonville Center
06:05PM 33.9775 -80.7839 256° West 238 274 20,000  Level Jacksonville Center
06:06PM 33.9619 -80.8594 256° West 238 274 20,000  Level Jacksonville Center
06:07PM 33.9464 -80.9350 259° West 243 280 20,000  Level Jacksonville Center
06:08PM 33.9331 -81.0153 254° West 243 280 20,000  Level Jacksonville Center
06:09PM 33.9153 -81.0883 260° West 243 280 20,000  Level Jacksonville Center
06:10PM 33.9039 -81.1686 256° West 243 280 20,000  Level Jacksonville Center
06:11PM 33.8883 -81.2439 256° West 243 280 20,000  Level Jacksonville Center
06:12PM 33.8725 -81.3217 256° West 243 280 20,000  Level Jacksonville Center
06:14PM 33.8350 -81.5081 256° West 241 277 20,000  Level Atlanta Center
06:15PM 33.8197 -81.5833 256° West 241 277 20,000  Level Atlanta Center
06:16PM 33.8044 -81.6589 257° West 241 277 20,000  Level Atlanta Center
06:17PM 33.7894 -81.7392 256° West 241 277 20,000  Level Atlanta Center
06:18PM 33.7742 -81.8147 257° West 241 277 20,000  Level Atlanta Center
06:19PM 33.7589 -81.8925 257° West 241 277 20,000 -240 Level Atlanta Center
06:20PM 33.7453 -81.9628 256° West 241 277 19,600 -780 Descending Atlanta Center
06:21PM 33.7281 -82.0481 257° West 253 291 18,500 -1,020 Descending Atlanta Center
06:22PM 33.7106 -82.1383 273° West 265 305 17,600 -960 Descending Atlanta Center
06:23PM 33.7142 -82.2308 277° West 270 311 16,600 -600 Descending Atlanta Center
06:24PM 33.7239 -82.3281 274° West 275 316 16,500 -60 Descending Atlanta Center
06:25PM 33.7292 -82.4103 276° West 264 304 16,500  Level Atlanta Center
06:26PM 33.7364 -82.4925 278° West 256 295 16,500  Level Atlanta Center
06:27PM 33.7458 -82.5697 273° West 251 289 16,500  Level Atlanta Center
06:28PM 33.7489 -82.6522 276° West 251 289 16,500  Level Atlanta Center
06:29PM 33.7561 -82.7344 277° West 251 289 16,500  Level Atlanta Center
06:30PM 33.7631 -82.8044 276° West 251 289 16,500  Level Atlanta Center
06:31PM 33.7700 -82.8867 276° West 251 289 16,500  Level Atlanta Center
06:32PM 33.7769 -82.9642 278° West 251 289 16,500  Level Atlanta Center
06:33PM 33.7861 -83.0439 274° West 251 289 16,500  Level Atlanta Center
06:34PM 33.7908 -83.1264 274° West 251 289 16,500  Level Atlanta Center
06:35PM 33.7956 -83.2089 276° West 251 289 16,500  Level Atlanta Center
06:36PM 33.8025 -83.2939 276° West 251 289 16,500  Level Atlanta Center
06:37PM 33.8092 -83.3764 274° West 251 289 16,500 -480 Level Atlanta Center
06:38PM 33.8136 -83.4586 275° West 251 289 15,600 -1,200 Descending Atlanta Center
06:39PM 33.8203 -83.5461 275° West 256 295 14,100 -1,560 Descending Atlanta Center
06:40PM 33.8269 -83.6311 276° West 251 289 12,500 -1,740 Descending Atlanta Center
06:41PM 33.8333 -83.7086 276° West 251 289 10,700 -1,800 Descending Atlanta Center
06:42PM 33.8400 -83.7861 276° West 241 277 8,900 -1,920 Descending Atlanta Center
06:43PM 33.8464 -83.8586 274° West 231 266 6,900 -1,980 Descending Atlanta Center
06:44PM 33.8506 -83.9336 279° West 231 266 5,000 -1,200 Descending Atlanta Center
06:45PM 33.8589 -83.9989 278° West 213 245 4,600 -600 Descending Atlanta Center
06:46PM 33.8653 -84.0564 290° West 202 232 3,900 -600 Descending Atlanta Center
06:47PM 33.8833 -84.1167 270° West 183 211 3,600 -180 Descending Atlanta TRACON
06:48PM 33.8833 -84.1833 287° West 191 220 3,600 -540 Level Atlanta TRACON
06:49PM 33.9000 -84.2500 270° West 184 212 2,500 -1,020 Descending Atlanta TRACON
06:50PM 33.9000 -84.2833 270° West 123 142 1,500 -1,020 Descending Atlanta TRACON